Flag for U.S.A. Weather past 2 weeks in Kailua-Kona, Hawaii, U.S.A.

Now
87 °F

Passing clouds.


Feels Like: 94 °F
Forecast: 74 / 79 °F
Wind: 14 mph from South

Location: Keahole Airport

Current Time: Jul 29, 2014 at 1:35:14 PM

Latest Report: Jul 29, 2014 at 12:53 PM


Visibility: 10 mi

Pressure: 29.97 "Hg

Humidity: 61%

Dew point: 72 °F

Location of Kailua-KonaLocation

Historic Weather in Kailua-Kona — Graph

°F

Kailua-Kona temperature yesterday

Maximum temperature yesterday: 86 °F (at 12:53 PM)
Minimum temperature yesterday: 79 °F (at 6:56 AM)
Average temperature yesterday: 82 °F

Past Weeks' High & Low Weather Summary

 TemperatureHumidityPressure
High88 °F (Jul 23, 12:53 PM)94% (Jul 15, 3:53 AM)30.05 "Hg (Jul 15, 3:53 AM)
Low74 °F (Jul 18, 4:53 AM)51% (Jul 25, 12:53 PM)29.87 "Hg (Jul 20, 2:53 AM)
Average81 °F71%29.96 "Hg
* Reported Jul 14 11:53 AM — Jul 29 11:53 AM, Kailua-Kona, Weather by CustomWeather, © 2014

Note: Actual official high and low records may vary slightly from our data, if they occured in-between our weather recording intervals... More about our weather records

Advertising

Kailua-Kona weather history for previous 24 hours

 ConditionsComfort  
Time TempWeatherWind HumidityBarometerVisibility
11:53 AM
Jul 29
86 °FSunny.14 mph61%29.98 "Hg10 mi
10:53 AM85 °FScattered clouds.12 mph65%30.00 "Hg10 mi
9:53 AM84 °FSunny.8 mph65%30.01 "Hg10 mi
8:53 AM83 °FSunny.6 mph68%30.01 "Hg10 mi
7:53 AM82 °FScattered clouds.3 mph67%30.02 "Hg10 mi
6:53 AM79 °FSunny.No wind72%30.01 "Hg10 mi
5:53 AM78 °FPassing clouds.No wind76%29.99 "Hg10 mi
4:53 AM78 °FPassing clouds.5 mph76%29.98 "Hg10 mi
3:53 AM79 °FPartly cloudy.3 mph79%29.97 "Hg10 mi
3:17 AM79 °FMostly cloudy.5 mph79%29.97 "Hg10 mi
2:45 AM81 °FMostly cloudy.8 mph66%29.98 "Hg10 mi
1:53 AM81 °FMostly cloudy.6 mph72%29.98 "Hg10 mi
12:53 AM80 °FOvercast.7 mph74%29.99 "Hg10 mi
11:53 PM
Jul 28
80 °FPassing clouds.8 mph71%30.00 "Hg10 mi
10:53 PM81 °FClear.7 mph67%30.01 "Hg10 mi
9:53 PM82 °FClear.5 mph70%30.00 "Hg10 mi
8:53 PM82 °FPassing clouds.6 mph72%29.99 "Hg10 mi
7:53 PM83 °FMostly cloudy.5 mph68%29.98 "Hg10 mi
6:53 PM83 °FMostly cloudy.7 mph68%29.97 "Hg10 mi
5:53 PM84 °FOvercast.7 mph65%29.96 "Hg10 mi
4:53 PM85 °FPartly sunny.8 mph63%29.96 "Hg10 mi
3:53 PM85 °FOvercast.8 mph65%29.96 "Hg10 mi
2:53 PM86 °FPartly sunny.12 mph59%29.96 "Hg10 mi
1:53 PM86 °FPartly sunny.10 mph61%29.96 "Hg10 mi
Weather by CustomWeather, © 2014

See weather overviewHow to use our weather pages